This demonstration page uses our WeatherBlox Daily Observations layout. Learn more.

Left ArrowRight Arrow

Hourly Observations for July 12, 2016

Temp ( °F °C ) Dew Point ( °F °C ) Humidity (%) Winds ( mph kmh ) Pressure ( in mb ) Visibility ( mi km ) Precip ( " mm )
12:53 am 00:53 Clear 73 22.8 68 20 84 84 Calm 30.07 1018 10 16 0.00 0.00
1:53 am 01:53 Clear 72 22.2 67 19.4 84 84 S 5 7 30.07 1018 10 16 0.00 0.00
2:53 am 02:53 Clear 72 22.2 67 19.4 84 84 SSW 5 7 30.06 1018 10 16 0.00 0.00
3:53 am 03:53 Clear 71 21.7 67 19.4 87 87 SSW 5 7 30.06 1018 10 16 0.00 0.00
4:53 am 04:53 Clear 71 21.7 67 19.4 87 87 Calm 30.06 1018 10 16 0.00 0.00
5:53 am 05:53 Clear 69 20.6 66 18.9 90 90 NE 3 6 30.06 1018 10 16 0.00 0.00
6:53 am 06:53 Sunny 68 20 66 18.9 93 93 Calm 30.10 1019 10 16 0.00 0.00
7:53 am 07:53 Partly Cloudy 70 21.1 67 19.4 90 90 Calm 30.11 1020 10 16 0.00 0.00
8:53 am 08:53 Sunny 73 22.8 68 20 84 84 VRB 3 6 30.12 1020 10 16 0.00 0.00
9:53 am 09:53 Sunny 76 24.4 69 20.6 79 79 S 5 7 30.14 1021 10 16 0.00 0.00
10:53 am 10:53 Sunny 80 26.7 70 21.1 71 71 VRB 3 6 30.13 1020 10 16 0.00 0.00
11:53 am 11:53 Sunny 83 28.3 71 21.7 67 67 Calm 30.14 1021 10 16 0.00 0.00
12:53 pm 12:53 Mostly Cloudy 86 30 70 21.1 59 59 Calm 30.13 1020 10 16 0.00 0.00
1:53 pm 13:53 Partly Cloudy 88 31.1 69 20.6 54 54 WNW 3 6 30.11 1020 10 16 0.00 0.00
2:53 pm 14:53 Mostly Cloudy 88 31.1 68 20 52 52 S 6 9 30.09 1019 10 16 0.00 0.00
3:53 pm 15:53 Mostly Cloudy 91 32.8 68 20 47 47 WSW 9 15 30.07 1018 10 16 0.00 0.00
4:53 pm 16:53 Cloudy 92 33.3 68 20 46 46 N 3 6 30.05 1018 10 16 0.00 0.00
5:53 pm 17:53 Mostly Cloudy 92 33.3 66 18.9 43 43 WSW 8 13 30.04 1017 10 16 0.00 0.00
6:53 pm 18:53 Sunny 90 32.2 66 18.9 45 45 WSW 6 9 30.06 1018 10 16 0.00 0.00
7:53 pm 19:53 Mostly Cloudy 86 30 66 18.9 51 51 WSW 8 13 30.08 1019 10 16 0.00 0.00
8:53 pm 20:53 Clear 79 26.1 66 18.9 65 65 SSW 15 24 30.13 1020 10 16 0.00 0.00
9:53 pm 21:53 Clear 77 25 67 19.4 71 71 SSW 6 9 30.09 1019 10 16 0.00 0.00
10:53 pm 22:53 Clear 77 25 67 19.4 71 71 Calm 30.07 1018 10 16 0.00 0.00
11:53 pm 23:53 Clear 75 23.9 67 19.4 76 76 W 5 7 30.07 1018 10 16 0.00 0.00

Powered by AerisWeather